Starlink 3635

operational
NORAD ID: 51981 Int'l Des: 2022-025 Owner: SPXS Country: US Constellation: starlink
LEOCIRCULAR

Über Starlink 3635

Beschreibung wird geladen...

Live-Position

3D-Globus wird geladen...

Nächste Überflüge

Höhenverlauf

Altitude vs Time

uPlot chart will show altitude changes over time

Zweizeiliger Elementsatz

1 51981U 22025AB 25260.86121152 .00002485 00000-0 17411-3 0 9992
2 51981 53.2179 94.9804 0001615 81.6490 278.4686 15.08855110194962
Epoch: 17. Sept. 2025 • Age: 20 hours

Aktueller Status

Höhe 544.3 km
Geschwindigkeit 7.59 km/s
Subsatellitenpunkt -15.24°S, 35.72°E
Startdatum 9. März 2022
Alter 3.5 years
Typ internet

Technische Details

Klassifizierung Payload
Masse 297.00 kg
Trockenmasse 275.00 kg
Gesamtmasse 297.00 kg
Länge 0.20 m
Durchmesser 2.80 m
Spannweite 9.00 m
Form Box + pan
Hersteller SPXS
Bus-Typ Starlink
Phasenstatus In Orbit
Besitzer/Staat SPXS/US

Große Konstellationen

Loading constellations...